Miscellaneous Local Product
Issued by NWS Hastings, NE

Home | Current Version | Previous Version | Graphics & Text | Print | Product List | Glossary On
Versions: 1 2 3 4 5 6 7 8 9 10 11 12 13 14 15 16 17 18 19 20 21 22 23 24 25 26 27 28 29 30 31 32 33 34 35 36 37 38 39 40 41 42 43 44 45 46 47 48 49 50
000
AXUS43 KGID 022202
MISGRI

GID CWA HOURLY WEATHER ROUNDUP
NATIONAL WEATHER SERVICE HASTINGS NE
500 PM CDT THU JUL 02 2015

NOTE: "FAIR" INDICATES FEW OR NO CLOUDS BELOW 12,000 FEET WITH NO
SIGNIFICANT WEATHER AND/OR OBSTRUCTIONS TO VISIBILITY.

...SOUTH CENTRAL NEBRASKA...

CITY           SKY/WX    TMP DP  RH WIND       PRES   REMARKS
GRAND ISLAND   MOSUNNY   75  67  76 SE5       29.92S
HASTINGS       CLOUDY    83  63  50 NW16      29.91F
KEARNEY        PTSUNNY   84  63  48 W16G22    29.93F
ORD            SUNNY     82  60  47 N18G28    29.93S
YORK           PTSUNNY   73  68  83 SE7       29.92S
AURORA         MOSUNNY   75  67  76 CALM      29.90F
LEXINGTON      MOSUNNY   84  64  51 N17       29.98S
HOLDREGE       PTSUNNY   73  63  71 NW6       29.97S
HEBRON         MOSUNNY   82  64  55 NW5       29.91S

...NEBRASKA PANHANDLE...

CITY           SKY/WX    TMP DP  RH WIND       PRES   REMARKS
CHADRON        MOSUNNY   81  60  48 NE6       30.07F
ALLIANCE       MOSUNNY   80  60  50 NE10      30.10S
SCOTTSBLUFF    MOSUNNY   81  53  37 NE12      30.10F
SIDNEY         SUNNY     83  55  38 N9G22     30.13F

...WESTERN AND NORTH CENTRAL NEBRASKA...

CITY           SKY/WX    TMP DP  RH WIND       PRES   REMARKS
VALENTINE      MOSUNNY   80  57  45 N10G20    30.01F
AINSWORTH      MOSUNNY   79  59  49 N16G24    30.01S
ONEILL         PTSUNNY   74  66  75 NE8       29.98S
BROKEN BOW     MOSUNNY   83  58  42 N18G26    29.97S
IMPERIAL       MOSUNNY   86  56  35 N12       30.05F
NORTH PLATTE   MOSUNNY   80  60  50 N12       30.01S
MCCOOK         MOSUNNY   88  59  37 N8        29.99S

...EASTERN NEBRASKA...

CITY           SKY/WX    TMP DP  RH WIND       PRES   REMARKS
NORFOLK        HVY RAIN  65  64  97 E9        29.95S VSB 3/4
SO SIOUX CITY  CLOUDY    67  61  81 E10       29.98S
TEKAMAH        CLOUDY    70  64  81 SE8       29.96S
COLUMBUS       CLOUDY    72  63  73 E13       29.94F
ALBION         MOSUNNY   76  66  71 E12       29.93S
OMAHA EPPLEY   CLOUDY    70  65  84 E7        29.96S HAZE
MILLARD        CLOUDY    70  65  85 E5        29.94F
LINCOLN        CLOUDY    75  67  76 NE12      29.93S
NEBRASKA CITY  CLOUDY    71  68  91 SE6       29.94S
BEATRICE       CLOUDY    74  68  82 SE9       29.92F
FALLS CITY     LGT RAIN  70  68  93 E5        29.94R

...NORTHERN KANSAS...

CITY           SKY/WX    TMP DP  RH WIND       PRES   REMARKS
GOODLAND       SUNNY     86  57  37 N16G23    30.06F
HILL CITY      LGT RAIN  90  58  33 N8        29.96F
NORTON         PTCLDY    88  52  29 NW14      29.96F
PHILLIPSBURG   SUNNY     91  57  31 W12G18    29.94F HX  90
SMITH CENTER   SUNNY     88  55  33 NW10      29.93S
HAYS           MOSUNNY   84  63  48 W6        29.97F
RUSSELL        MOSUNNY   81  68  64 SW9       29.94F
CONCORDIA      MOSUNNY   84  69  60 SW9       29.91F
SALINA         MOSUNNY   83  69  62 W9        29.93F
TOPEKA         PTSUNNY   76  70  82 E7        29.92S



USA.gov is the U.S. government's official web portal to all federal, state and local government web resources and services.